Location: Nelson
(41.2830°S, 173.2830°E)
Time: 00:22:05
(UTC+13:00)

Meteor 1-26 Rocket - Pass Details

Date: 28 October 2019
Orbit: 817 x 918 km, 81.3° (Epoch: 19 November)

Event Time Altitude Azimuth Distance (km) Brightness Sun altitude
Rises 23:40:22 0° 210° (SSW) 3,397 8.5 -31.8°
Reaches altitude 10° 23:43:58 10° 234° (SW) 2,467 7.3 -32.0°
Maximum altitude 23:46:43 14° 264° (W) 2,200 6.6 -32.3°
Enters shadow 23:48:37 12° 285° (WNW) 2,339 6.6 -32.4°
